ACI331 NFFN-NWWW

Flight info

Callsign ACI331
Flight time 1h 53m
Altitude 38000
Route ALBAB B599 MESUS MESUS2
Aircraft A320/M-SDE3FGHIRWY/LB1

Departure

Time 2026-04-23 12:40
Airport Nadi International Airport (NFFN)

Arrival

Time 2026-04-23 14:33
Airport La Tontouta International Airport (NWWW)
Time Latitude Longitude Altitude Speed Heading
2026-04-23 12:10 -17.75144 177.45118 46 ft 0 kts 194°
2026-04-23 12:26 -17.75139 177.45119 45 ft 4 kts 194°
2026-04-23 12:26 -17.75114 177.45127 46 ft 4 kts 205°
2026-04-23 12:27 -17.75092 177.45142 45 ft 4 kts 234°
2026-04-23 12:27 -17.75086 177.45160 44 ft 1 kts 284°
2026-04-23 12:27 -17.75086 177.45161 44 ft 0 kts 284°
2026-04-23 12:29 -17.75085 177.45159 44 ft 1 kts 284°
2026-04-23 12:30 -17.75082 177.45144 47 ft 3 kts 284°
2026-04-23 12:30 -17.75074 177.45114 45 ft 5 kts 284°
2026-04-23 12:30 -17.75063 177.45068 45 ft 7 kts 284°
2026-04-23 12:30 -17.75049 177.45008 47 ft 10 kts 284°
2026-04-23 12:31 -17.75043 177.44931 47 ft 12 kts 273°
2026-04-23 12:31 -17.75033 177.44885 47 ft 0 kts 284°
2026-04-23 12:38 -17.75033 177.44882 47 ft 1 kts 284°
2026-04-23 12:38 -17.75028 177.44865 44 ft 4 kts 284°
2026-04-23 12:39 -17.75017 177.44816 47 ft 8 kts 283°
2026-04-23 12:39 -17.75009 177.44748 47 ft 10 kts 264°
2026-04-23 12:39 -17.75061 177.44687 47 ft 13 kts 218°
2026-04-23 12:39 -17.75223 177.44557 47 ft 60 kts 217°
2026-04-23 12:40 -17.75742 177.44154 45 ft 122 kts 218°
2026-04-23 12:40 -17.76547 177.43503 47 ft 168 kts 215°
2026-04-23 12:40 -17.77483 177.42751 537 ft 172 kts 218°
2026-04-23 12:40 -17.78433 177.41954 1084 ft 183 kts 216°
2026-04-23 12:41 -17.79496 177.41086 1370 ft 205 kts 216°
2026-04-23 12:41 -17.80688 177.40120 1710 ft 228 kts 216°
2026-04-23 12:41 -17.82012 177.39051 2095 ft 252 kts 216°
2026-04-23 12:41 -17.83457 177.37880 2604 ft 271 kts 216°
2026-04-23 12:42 -17.84976 177.36646 2935 ft 278 kts 216°
2026-04-23 12:42 -17.86517 177.35391 3598 ft 281 kts 216°
2026-04-23 12:42 -17.88049 177.34113 4534 ft 283 kts 221°
2026-04-23 12:42 -17.89228 177.32461 5376 ft 287 kts 245°
2026-04-23 12:43 -17.89880 177.30468 6214 ft 290 kts 253°
2026-04-23 12:43 -17.90474 177.28431 6994 ft 294 kts 253°
2026-04-23 12:43 -17.91071 177.26363 7734 ft 299 kts 254°
2026-04-23 12:43 -17.91673 177.24271 8547 ft 299 kts 254°
2026-04-23 12:44 -17.92279 177.22172 9379 ft 300 kts 253°
2026-04-23 12:44 -17.92889 177.20071 10140 ft 303 kts 253°
2026-04-23 12:44 -17.93525 177.17883 10397 ft 324 kts 254°
2026-04-23 12:44 -17.94203 177.15544 10612 ft 343 kts 254°
2026-04-23 12:45 -17.94907 177.13121 11137 ft 350 kts 253°
2026-04-23 12:45 -17.95627 177.10664 11740 ft 354 kts 254°
2026-04-23 12:45 -17.96353 177.08183 12355 ft 357 kts 253°
2026-04-23 12:45 -17.97087 177.05683 12988 ft 360 kts 253°
2026-04-23 12:46 -17.97825 177.03162 13614 ft 363 kts 253°
2026-04-23 12:46 -17.98569 177.00620 14172 ft 365 kts 254°
2026-04-23 12:46 -17.99314 176.98061 14735 ft 367 kts 254°
2026-04-23 12:46 -18.00060 176.95490 15311 ft 369 kts 255°
2026-04-23 12:47 -18.00798 176.92942 15895 ft 370 kts 255°
2026-04-23 12:47 -18.01550 176.90353 16475 ft 372 kts 255°
2026-04-23 12:47 -18.02306 176.87748 17022 ft 374 kts 255°
2026-04-23 12:47 -18.03067 176.85128 17608 ft 375 kts 255°
2026-04-23 12:48 -18.03829 176.82502 18182 ft 377 kts 255°
2026-04-23 12:48 -18.04595 176.79856 18647 ft 381 kts 255°
2026-04-23 12:48 -18.05367 176.77188 19129 ft 383 kts 255°
2026-04-23 12:48 -18.06142 176.74508 19621 ft 385 kts 256°
2026-04-23 12:49 -18.06920 176.71804 20094 ft 388 kts 255°
2026-04-23 12:49 -18.07703 176.69085 20569 ft 391 kts 255°
2026-04-23 12:49 -18.08496 176.66345 21060 ft 393 kts 255°
2026-04-23 12:49 -18.09295 176.63581 21519 ft 396 kts 255°
2026-04-23 12:50 -18.10097 176.60801 21996 ft 399 kts 255°
2026-04-23 12:50 -18.10904 176.58000 22461 ft 402 kts 255°
2026-04-23 12:50 -18.11717 176.55179 22909 ft 405 kts 255°
2026-04-23 12:50 -18.12538 176.52338 23357 ft 408 kts 255°
2026-04-23 12:51 -18.13361 176.49479 23756 ft 410 kts 255°
2026-04-23 12:51 -18.14190 176.46602 24121 ft 412 kts 255°
2026-04-23 12:51 -18.15024 176.43709 24484 ft 414 kts 256°
2026-04-23 12:51 -18.15858 176.40804 24842 ft 416 kts 256°
2026-04-23 12:52 -18.16694 176.37883 25194 ft 418 kts 256°
2026-04-23 12:52 -18.17531 176.34950 25541 ft 420 kts 256°
2026-04-23 12:52 -18.18375 176.32000 25884 ft 422 kts 256°
2026-04-23 12:52 -18.19225 176.29038 26218 ft 424 kts 256°
2026-04-23 12:53 -18.20079 176.26063 26550 ft 426 kts 256°
2026-04-23 12:53 -18.20936 176.23072 26870 ft 428 kts 256°
2026-04-23 12:53 -18.21800 176.20067 27187 ft 430 kts 256°
2026-04-23 12:53 -18.22665 176.17053 27519 ft 431 kts 256°
2026-04-23 12:54 -18.23531 176.14034 27847 ft 432 kts 256°
2026-04-23 12:54 -18.24387 176.11042 28161 ft 434 kts 256°
2026-04-23 12:54 -18.25256 176.07994 28484 ft 436 kts 256°
2026-04-23 12:54 -18.26128 176.04934 28801 ft 438 kts 256°
2026-04-23 12:55 -18.27007 176.01863 29117 ft 440 kts 256°
2026-04-23 12:55 -18.27887 175.98774 29429 ft 442 kts 256°
2026-04-23 12:55 -18.28768 175.95674 29739 ft 444 kts 256°
2026-04-23 12:55 -18.29653 175.92556 30037 ft 445 kts 256°
2026-04-23 12:56 -18.30552 175.89385 30291 ft 448 kts 256°
2026-04-23 12:56 -18.31444 175.86244 30567 ft 448 kts 256°
2026-04-23 12:56 -18.32326 175.83146 30916 ft 447 kts 256°
2026-04-23 12:56 -18.33261 175.80022 31264 ft 448 kts 252°
2026-04-23 12:57 -18.34490 175.76995 31560 ft 451 kts 249°
2026-04-23 12:57 -18.35757 175.73979 31888 ft 451 kts 249°
2026-04-23 12:57 -18.37024 175.70960 32238 ft 450 kts 249°
2026-04-23 12:57 -18.38288 175.67945 32609 ft 450 kts 249°
2026-04-23 12:58 -18.39546 175.64933 33003 ft 449 kts 250°
2026-04-23 12:58 -18.40818 175.61888 33398 ft 448 kts 250°
2026-04-23 12:58 -18.42057 175.58932 33775 ft 447 kts 250°
2026-04-23 12:58 -18.43313 175.55937 34134 ft 447 kts 250°
2026-04-23 12:59 -18.44564 175.52949 34472 ft 445 kts 250°
2026-04-23 12:59 -18.45808 175.49966 34831 ft 444 kts 250°
2026-04-23 12:59 -18.47042 175.46998 35195 ft 442 kts 250°
2026-04-23 12:59 -18.48273 175.44044 35559 ft 439 kts 250°
2026-04-23 13:00 -18.49499 175.41102 35912 ft 437 kts 250°
2026-04-23 13:00 -18.50718 175.38176 36255 ft 436 kts 250°
2026-04-23 13:00 -18.51524 175.36242 36468 ft 435 kts 250°
2026-04-23 13:00 -18.52736 175.33334 36799 ft 433 kts 250°
2026-04-23 13:01 -18.53943 175.30430 37114 ft 431 kts 250°
2026-04-23 13:01 -18.55141 175.27541 37436 ft 430 kts 250°
2026-04-23 13:01 -18.56333 175.24654 37740 ft 428 kts 251°
2026-04-23 13:01 -18.57521 175.21781 37971 ft 428 kts 251°
2026-04-23 13:02 -18.59913 175.16006 38019 ft 431 kts 250°
2026-04-23 13:02 -18.62312 175.10209 38022 ft 432 kts 251°
2026-04-23 13:03 -18.64716 175.04404 38017 ft 432 kts 251°
2026-04-23 13:03 -18.67118 174.98595 38025 ft 432 kts 251°
2026-04-23 13:04 -18.69520 174.92781 38029 ft 433 kts 251°
2026-04-23 13:04 -18.71924 174.86962 38051 ft 433 kts 251°
2026-04-23 13:05 -18.74329 174.81145 38049 ft 432 kts 251°
2026-04-23 13:05 -18.76728 174.75326 38047 ft 432 kts 251°
2026-04-23 13:06 -18.80311 174.66602 38052 ft 432 kts 251°
2026-04-23 13:07 -18.82704 174.60785 38042 ft 432 kts 251°
2026-04-23 13:07 -18.85101 174.54967 38044 ft 432 kts 251°
2026-04-23 13:08 -18.87492 174.49138 38045 ft 433 kts 251°
2026-04-23 13:08 -18.89865 174.43340 38045 ft 433 kts 251°
2026-04-23 13:09 -18.92255 174.37501 38042 ft 433 kts 251°
2026-04-23 13:09 -18.94643 174.31653 38038 ft 434 kts 251°
2026-04-23 13:10 -18.97031 174.25804 38053 ft 433 kts 251°
2026-04-23 13:10 -18.99416 174.19976 38054 ft 431 kts 251°
2026-04-23 13:11 -19.01786 174.14166 38062 ft 430 kts 252°
2026-04-23 13:11 -19.04148 174.08370 38067 ft 429 kts 252°
2026-04-23 13:12 -19.06501 174.02579 38060 ft 428 kts 252°
2026-04-23 13:12 -19.08845 173.96799 38054 ft 427 kts 252°
2026-04-23 13:13 -19.11182 173.91025 38054 ft 427 kts 252°
2026-04-23 13:13 -19.13510 173.85261 38055 ft 426 kts 252°
2026-04-23 13:14 -19.15845 173.79515 38048 ft 425 kts 252°
2026-04-23 13:14 -19.18174 173.73777 38050 ft 424 kts 252°
2026-04-23 13:15 -19.20493 173.68044 38044 ft 423 kts 252°
2026-04-23 13:15 -19.22799 173.62314 38042 ft 423 kts 252°
2026-04-23 13:16 -19.25111 173.56587 38043 ft 423 kts 252°
2026-04-23 13:16 -19.27424 173.50855 38051 ft 423 kts 252°
2026-04-23 13:17 -19.29728 173.45121 38046 ft 424 kts 252°
2026-04-23 13:17 -19.32033 173.39383 38047 ft 424 kts 252°
2026-04-23 13:18 -19.34337 173.33641 38062 ft 423 kts 252°
2026-04-23 13:18 -19.36636 173.27908 38056 ft 422 kts 252°
2026-04-23 13:19 -19.38916 173.22230 38056 ft 421 kts 252°
2026-04-23 13:19 -19.41209 173.16521 38061 ft 421 kts 252°
2026-04-23 13:20 -19.43487 173.10813 38057 ft 420 kts 252°
2026-04-23 13:20 -19.45761 173.05109 38055 ft 420 kts 252°
2026-04-23 13:21 -19.48037 172.99411 38052 ft 420 kts 252°
2026-04-23 13:21 -19.50309 172.93716 38052 ft 420 kts 252°
2026-04-23 13:22 -19.52577 172.88011 38058 ft 420 kts 253°
2026-04-23 13:22 -19.54846 172.82309 38056 ft 420 kts 252°
2026-04-23 13:23 -19.57118 172.76604 38052 ft 420 kts 252°
2026-04-23 13:23 -19.59384 172.70903 38052 ft 419 kts 253°
2026-04-23 13:24 -19.61640 172.65200 38051 ft 419 kts 253°
2026-04-23 13:24 -19.63892 172.59493 38050 ft 419 kts 253°
2026-04-23 13:25 -19.66134 172.53828 38064 ft 419 kts 253°
2026-04-23 13:25 -19.68396 172.48128 38060 ft 419 kts 253°
2026-04-23 13:26 -19.70649 172.42425 38061 ft 419 kts 253°
2026-04-23 13:26 -19.72893 172.36717 38061 ft 419 kts 253°
2026-04-23 13:27 -19.75143 172.31013 38057 ft 419 kts 253°
2026-04-23 13:27 -19.77389 172.25306 38060 ft 419 kts 253°
2026-04-23 13:28 -19.79631 172.19599 38064 ft 419 kts 253°
2026-04-23 13:28 -19.81871 172.13885 38063 ft 419 kts 253°
2026-04-23 13:29 -19.84107 172.08174 38063 ft 419 kts 253°
2026-04-23 13:29 -19.86350 172.02461 38070 ft 419 kts 253°
2026-04-23 13:30 -19.88588 171.96750 38067 ft 418 kts 253°
2026-04-23 13:30 -19.90816 171.91042 38067 ft 418 kts 253°
2026-04-23 13:31 -19.93039 171.85336 38066 ft 418 kts 253°
2026-04-23 13:31 -19.95264 171.79637 38085 ft 417 kts 253°
2026-04-23 13:32 -19.97495 171.73945 38075 ft 416 kts 253°
2026-04-23 13:32 -19.99707 171.68266 38069 ft 415 kts 253°
2026-04-23 13:33 -20.01907 171.62596 38074 ft 414 kts 253°
2026-04-23 13:33 -20.04104 171.56935 38070 ft 414 kts 253°
2026-04-23 13:34 -20.06284 171.51315 38071 ft 414 kts 253°
2026-04-23 13:34 -20.08477 171.45656 38069 ft 414 kts 253°
2026-04-23 13:35 -20.10669 171.40001 38069 ft 413 kts 253°
2026-04-23 13:35 -20.12853 171.34345 38066 ft 413 kts 253°
2026-04-23 13:36 -20.15038 171.28692 38066 ft 413 kts 253°
2026-04-23 13:36 -20.17214 171.23039 38073 ft 413 kts 254°
2026-04-23 13:37 -20.19390 171.17386 38071 ft 413 kts 254°
2026-04-23 13:37 -20.21574 171.11733 38070 ft 413 kts 253°
2026-04-23 13:38 -20.23746 171.06081 38070 ft 412 kts 254°
2026-04-23 13:38 -20.25918 171.00431 38087 ft 412 kts 253°
2026-04-23 13:39 -20.28080 170.94788 38076 ft 411 kts 253°
2026-04-23 13:39 -20.30237 170.89154 38075 ft 410 kts 254°
2026-04-23 13:40 -20.32373 170.83558 38070 ft 411 kts 254°
2026-04-23 13:40 -20.34530 170.77922 38070 ft 411 kts 254°
2026-04-23 13:41 -20.36685 170.72288 38070 ft 411 kts 254°
2026-04-23 13:41 -20.38842 170.66655 38072 ft 410 kts 254°
2026-04-23 13:42 -20.40989 170.61016 38069 ft 410 kts 254°
2026-04-23 13:42 -20.43128 170.55375 38066 ft 411 kts 254°
2026-04-23 13:43 -20.45274 170.49730 38069 ft 411 kts 255°
2026-04-23 13:43 -20.47424 170.44076 38075 ft 412 kts 255°
2026-04-23 13:44 -20.49577 170.38413 38075 ft 412 kts 255°
2026-04-23 13:44 -20.51731 170.32749 38078 ft 412 kts 255°
2026-04-23 13:45 -20.53514 170.28041 38094 ft 412 kts 256°
2026-04-23 13:45 -20.56013 170.21426 38090 ft 410 kts 256°
2026-04-23 13:46 -20.58126 170.15823 38099 ft 409 kts 256°
2026-04-23 13:46 -20.60246 170.10200 38095 ft 408 kts 256°
2026-04-23 13:47 -20.62366 170.04588 38090 ft 407 kts 256°
2026-04-23 13:47 -20.64472 169.98989 38089 ft 406 kts 256°
2026-04-23 13:48 -20.66577 169.93394 38088 ft 406 kts 256°
2026-04-23 13:48 -20.68680 169.87801 38085 ft 406 kts 256°
2026-04-23 13:49 -20.70778 169.82210 38090 ft 406 kts 256°
2026-04-23 13:49 -20.72877 169.76620 38102 ft 405 kts 256°
2026-04-23 13:50 -20.74611 169.71981 38092 ft 404 kts 256°
2026-04-23 13:50 -20.77048 169.65463 38090 ft 404 kts 256°
2026-04-23 13:51 -20.78784 169.60831 38091 ft 404 kts 256°
2026-04-23 13:51 -20.80859 169.55260 38091 ft 403 kts 256°
2026-04-23 13:52 -20.82927 169.49703 38097 ft 401 kts 257°
2026-04-23 13:52 -20.84982 169.44181 38092 ft 400 kts 257°
2026-04-23 13:53 -20.87037 169.38664 38101 ft 399 kts 257°
2026-04-23 13:53 -20.89086 169.33149 38094 ft 399 kts 257°
2026-04-23 13:54 -20.91131 169.27637 38091 ft 399 kts 257°
2026-04-23 13:54 -20.93178 169.22122 38096 ft 399 kts 257°
2026-04-23 13:55 -20.95221 169.16606 38088 ft 399 kts 257°
2026-04-23 13:55 -20.97249 169.11121 38093 ft 399 kts 257°
2026-04-23 13:56 -20.99292 169.05598 38099 ft 399 kts 257°
2026-04-23 13:56 -21.01330 169.00071 38098 ft 399 kts 257°
2026-04-23 13:57 -21.03372 168.94546 38100 ft 399 kts 257°
2026-04-23 13:57 -21.05401 168.89016 38101 ft 399 kts 257°
2026-04-23 13:58 -21.07428 168.83481 38102 ft 399 kts 257°
2026-04-23 13:58 -21.09468 168.77941 38103 ft 400 kts 257°
2026-04-23 13:59 -21.11508 168.72401 38104 ft 400 kts 257°
2026-04-23 13:59 -21.13542 168.66861 38114 ft 400 kts 258°
2026-04-23 14:00 -21.15225 168.62254 38114 ft 400 kts 258°
2026-04-23 14:00 -21.17589 168.55774 38109 ft 400 kts 258°
2026-04-23 14:01 -21.19613 168.50227 38116 ft 400 kts 258°
2026-04-23 14:01 -21.21636 168.44680 38113 ft 400 kts 258°
2026-04-23 14:02 -21.23663 168.39132 38114 ft 400 kts 258°
2026-04-23 14:02 -21.25671 168.33617 38112 ft 399 kts 258°
2026-04-23 14:03 -21.27681 168.28066 38115 ft 399 kts 258°
2026-04-23 14:03 -21.29694 168.22513 38110 ft 400 kts 258°
2026-04-23 14:04 -21.31691 168.16956 38110 ft 399 kts 258°
2026-04-23 14:04 -21.33663 168.11392 38109 ft 399 kts 258°
2026-04-23 14:05 -21.35640 168.05829 38108 ft 399 kts 258°
2026-04-23 14:05 -21.37611 168.00261 37989 ft 399 kts 259°
2026-04-23 14:05 -21.38589 167.97483 37724 ft 398 kts 259°
2026-04-23 14:06 -21.39566 167.94705 37476 ft 398 kts 258°
2026-04-23 14:06 -21.40550 167.91923 37219 ft 399 kts 258°
2026-04-23 14:06 -21.41539 167.89132 36966 ft 400 kts 258°
2026-04-23 14:06 -21.42530 167.86336 36713 ft 402 kts 258°
2026-04-23 14:07 -21.43522 167.83532 36463 ft 403 kts 258°
2026-04-23 14:07 -21.45492 167.77930 35987 ft 405 kts 258°
2026-04-23 14:07 -21.46486 167.75100 35742 ft 406 kts 258°
2026-04-23 14:08 -21.47485 167.72260 35505 ft 407 kts 258°
2026-04-23 14:08 -21.48485 167.69416 35272 ft 408 kts 258°
2026-04-23 14:08 -21.49487 167.66561 35038 ft 409 kts 258°
2026-04-23 14:08 -21.50493 167.63698 34802 ft 410 kts 257°
2026-04-23 14:09 -21.51503 167.60830 34578 ft 411 kts 257°
2026-04-23 14:09 -21.52512 167.57950 34362 ft 412 kts 257°
2026-04-23 14:09 -21.53518 167.55070 34136 ft 412 kts 257°
2026-04-23 14:09 -21.54526 167.52184 33883 ft 412 kts 257°
2026-04-23 14:10 -21.55532 167.49314 33543 ft 408 kts 257°
2026-04-23 14:10 -21.56533 167.46476 33052 ft 404 kts 257°
2026-04-23 14:10 -21.57524 167.43669 32572 ft 399 kts 257°
2026-04-23 14:10 -21.58498 167.40893 32100 ft 396 kts 257°
2026-04-23 14:11 -21.59461 167.38139 31625 ft 392 kts 257°
2026-04-23 14:11 -21.60413 167.35408 31146 ft 389 kts 257°
2026-04-23 14:11 -21.61359 167.32696 30667 ft 386 kts 257°
2026-04-23 14:11 -21.62298 167.30000 30195 ft 384 kts 257°
2026-04-23 14:12 -21.63228 167.27319 29668 ft 381 kts 257°
2026-04-23 14:12 -21.64149 167.24663 29214 ft 377 kts 257°
2026-04-23 14:12 -21.65063 167.22033 28756 ft 374 kts 257°
2026-04-23 14:12 -21.65971 167.19423 28290 ft 371 kts 257°
2026-04-23 14:13 -21.66872 167.16835 27842 ft 369 kts 257°
2026-04-23 14:13 -21.67755 167.14297 27411 ft 366 kts 257°
2026-04-23 14:13 -21.68643 167.11736 26986 ft 365 kts 257°
2026-04-23 14:13 -21.69525 167.09187 26563 ft 363 kts 257°
2026-04-23 14:14 -21.70406 167.06647 26156 ft 362 kts 257°
2026-04-23 14:14 -21.71283 167.04121 25751 ft 360 kts 256°
2026-04-23 14:14 -21.72158 167.01598 25347 ft 359 kts 256°
2026-04-23 14:14 -21.73029 166.99087 24956 ft 357 kts 256°
2026-04-23 14:15 -21.73894 166.96589 24567 ft 356 kts 256°
2026-04-23 14:15 -21.74755 166.94105 24167 ft 354 kts 256°
2026-04-23 14:15 -21.75613 166.91628 23772 ft 353 kts 256°
2026-04-23 14:15 -21.76467 166.89162 23323 ft 351 kts 255°
2026-04-23 14:16 -21.77312 166.86715 22897 ft 347 kts 255°
2026-04-23 14:16 -21.78149 166.84294 22505 ft 344 kts 255°
2026-04-23 14:16 -21.78977 166.81898 22089 ft 340 kts 255°
2026-04-23 14:16 -21.79797 166.79520 21681 ft 337 kts 255°
2026-04-23 14:17 -21.80608 166.77161 21267 ft 335 kts 255°
2026-04-23 14:17 -21.81411 166.74818 20840 ft 333 kts 255°
2026-04-23 14:17 -21.82212 166.72488 20418 ft 331 kts 255°
2026-04-23 14:17 -21.83010 166.70169 19989 ft 330 kts 255°
2026-04-23 14:18 -21.83806 166.67859 19560 ft 329 kts 255°
2026-04-23 14:18 -21.84596 166.65554 19096 ft 329 kts 255°
2026-04-23 14:18 -21.85389 166.63238 18612 ft 330 kts 254°
2026-04-23 14:18 -21.86205 166.60922 18089 ft 332 kts 253°
2026-04-23 14:19 -21.87056 166.58617 17590 ft 331 kts 252°
2026-04-23 14:19 -21.87923 166.56325 17097 ft 330 kts 252°
2026-04-23 14:19 -21.88793 166.54037 16621 ft 330 kts 252°
2026-04-23 14:19 -21.89660 166.51748 16142 ft 330 kts 252°
2026-04-23 14:20 -21.90519 166.49460 15672 ft 330 kts 251°
2026-04-23 14:20 -21.91376 166.47168 15179 ft 329 kts 252°
2026-04-23 14:20 -21.92224 166.44898 14719 ft 326 kts 251°
2026-04-23 14:20 -21.93065 166.42638 14245 ft 324 kts 251°
2026-04-23 14:21 -21.93903 166.40379 13754 ft 325 kts 251°
2026-04-23 14:21 -21.94725 166.38116 13264 ft 324 kts 251°
2026-04-23 14:21 -21.95513 166.35854 12797 ft 321 kts 252°
2026-04-23 14:21 -21.96282 166.33604 12344 ft 320 kts 252°
2026-04-23 14:22 -21.97037 166.31387 11906 ft 319 kts 252°
2026-04-23 14:22 -21.97798 166.29153 11452 ft 317 kts 252°
2026-04-23 14:22 -21.98559 166.26935 11013 ft 314 kts 252°
2026-04-23 14:22 -21.99317 166.24729 10570 ft 314 kts 252°
2026-04-23 14:23 -22.00017 166.22519 10319 ft 306 kts 259°
2026-04-23 14:23 -22.00231 166.20299 10197 ft 292 kts 274°
2026-04-23 14:23 -21.99933 166.18183 10019 ft 282 kts 284°
2026-04-23 14:23 -21.99493 166.16106 9504 ft 286 kts 284°
2026-04-23 14:24 -21.99055 166.14039 9231 ft 281 kts 284°
2026-04-23 14:24 -21.98622 166.11981 8770 ft 283 kts 284°
2026-04-23 14:24 -21.98184 166.09887 8170 ft 290 kts 283°
2026-04-23 14:24 -21.97736 166.07744 7577 ft 296 kts 284°
2026-04-23 14:25 -21.97280 166.05565 6996 ft 301 kts 284°
2026-04-23 14:25 -21.96816 166.03350 6403 ft 305 kts 283°
2026-04-23 14:25 -21.96347 166.01111 5812 ft 308 kts 283°
2026-04-23 14:25 -21.95873 165.98842 5106 ft 315 kts 282°
2026-04-23 14:26 -21.95277 165.96591 4779 ft 309 kts 296°
2026-04-23 14:26 -21.93910 165.94914 4681 ft 294 kts 328°
2026-04-23 14:26 -21.92023 165.94309 4610 ft 280 kts
2026-04-23 14:26 -21.90263 165.94876 4584 ft 263 kts 35°
2026-04-23 14:27 -21.89109 165.96286 4579 ft 245 kts 66°
2026-04-23 14:27 -21.88776 165.97992 4474 ft 224 kts 95°
2026-04-23 14:27 -21.89176 165.99523 4286 ft 204 kts 120°
2026-04-23 14:27 -21.89884 166.00784 4038 ft 190 kts 122°
2026-04-23 14:28 -21.90543 166.01949 3786 ft 173 kts 122°
2026-04-23 14:28 -21.91141 166.03006 3577 ft 158 kts 122°
2026-04-23 14:28 -21.91685 166.03969 3382 ft 144 kts 121°
2026-04-23 14:28 -21.92189 166.04863 3200 ft 137 kts 121°
2026-04-23 14:29 -21.92684 166.05738 3030 ft 136 kts 121°
2026-04-23 14:29 -21.93171 166.06602 2861 ft 134 kts 121°
2026-04-23 14:29 -21.93653 166.07456 2684 ft 133 kts 121°
2026-04-23 14:29 -21.94133 166.08307 2508 ft 133 kts 121°
2026-04-23 14:30 -21.94611 166.09154 2336 ft 132 kts 120°
2026-04-23 14:30 -21.95087 166.09998 2156 ft 132 kts 121°
2026-04-23 14:30 -21.95562 166.10841 1989 ft 131 kts 121°
2026-04-23 14:30 -21.96036 166.11680 1813 ft 131 kts 121°
2026-04-23 14:31 -21.96509 166.12519 1644 ft 131 kts 121°
2026-04-23 14:31 -21.96974 166.13344 1470 ft 130 kts 121°
2026-04-23 14:31 -21.97444 166.14178 1301 ft 130 kts 121°
2026-04-23 14:31 -21.97929 166.15040 1125 ft 138 kts 120°
2026-04-23 14:32 -21.98424 166.15918 938 ft 137 kts 121°
2026-04-23 14:32 -21.98918 166.16795 752 ft 136 kts 120°
2026-04-23 14:32 -21.99409 166.17666 575 ft 135 kts 119°
2026-04-23 14:32 -21.99894 166.18527 387 ft 134 kts 120°
2026-04-23 14:33 -22.00377 166.19386 217 ft 134 kts 120°
2026-04-23 14:33 -22.00858 166.20244 59 ft 134 kts 121°
2026-04-23 14:33 -22.01301 166.21034 23 ft 102 kts 121°
2026-04-23 14:33 -22.01471 166.21339 25 ft 10 kts 111°
2026-04-23 14:34 -22.01444 166.21409 25 ft 12 kts 36°
2026-04-23 14:34 -22.01422 166.21491 24 ft 14 kts 114°
2026-04-23 14:34 -22.01468 166.21589 25 ft 15 kts 102°
2026-04-23 14:34 -22.01480 166.21676 26 ft 7 kts 116°
2026-04-23 14:35 -22.01504 166.21726 28 ft 9 kts 120°
2026-04-23 14:35 -22.01531 166.21699 29 ft 9 kts 283°
2026-04-23 14:35 -22.01505 166.21647 28 ft 0 kts 301°
2026-04-23 14:35 -22.01501 166.21643 28 ft 2 kts 312°
2026-04-23 14:36 -22.01486 166.21618 25 ft 6 kts 302°
2026-04-23 14:36 -22.01460 166.21568 25 ft 9 kts 299°
2026-04-23 14:36 -22.01421 166.21496 24 ft 13 kts 301°
2026-04-23 14:36 -22.01337 166.21473 24 ft 15 kts 27°
2026-04-23 14:37 -22.01330 166.21554 24 ft 11 kts 103°
2026-04-23 14:37 -22.01335 166.21575 24 ft 1 kts 100°
2026-04-23 14:37 -22.01336 166.21594 25 ft 4 kts 95°
2026-04-23 14:37 -22.01337 166.21596 25 ft 0 kts 95°